| time (UTC) | temp F | wind direction | speed knots | gust knots | rain 1hr in | rain 24hr in | rain mn in | humidity % | barometer mb |
| 20260504183337 | 59 | 224 | 3.5 | 7.8 | 0.00 | 0.00 | 0.00 | 78 | 1014.1 |
| 20260504182837 | 59 | 164 | 3.5 | 7.8 | 0.00 | 0.00 | 0.00 | 78 | 1014.2 |
| 20260504182332 | 58 | 235 | 3.5 | 7.8 | 0.00 | 0.00 | 0.00 | 79 | 1014.1 |
| 20260504182055 | 58 | 212 | 2.6 | 7.0 | 0.00 | 0.00 | 0.00 | 79 | 1014.1 |
| 20260504181556 | 58 | 231 | 3.5 | 7.0 | 0.00 | 0.00 | 0.00 | 79 | 1014.1 |
| 20260504180822 | 58 | 217 | 3.5 | 7.0 | 0.00 | 0.00 | 0.00 | 79 | 1014.1 |
| 20260504180322 | 58 | 240 | 2.6 | 7.0 | 0.00 | 0.00 | 0.00 | 80 | 1014.2 |
| 20260504175823 | 58 | 228 | 2.6 | 7.0 | 0.00 | 0.00 | 0.00 | 79 | 1014.3 |
| 20260504175542 | 58 | 212 | 2.6 | 6.1 | 0.00 | 0.00 | 0.00 | 80 | 1014.2 |
| 20260504174817 | 57 | 154 | 3.5 | 7.8 | 0.00 | 0.00 | 0.00 | 81 | 1014.2 |
| 20260504174312 | 57 | 187 | 3.5 | 7.8 | 0.00 | 0.00 | 0.00 | 81 | 1014.1 |
| 20260504173811 | 57 | 138 | 2.6 | 6.1 | 0.00 | 0.00 | 0.00 | 82 | 1014.2 |
| 20260504173310 | 57 | 196 | 3.5 | 7.0 | 0.00 | 0.00 | 0.00 | 81 | 1014.4 |
| 20260504172309 | 57 | 225 | 2.6 | 6.1 | 0.00 | 0.00 | 0.00 | 82 | 1014.3 |
| 20260504171809 | 57 | 166 | 3.5 | 7.8 | 0.00 | 0.00 | 0.00 | 82 | 1014.4 |
| 20260504171310 | 57 | 201 | 3.5 | 7.8 | 0.00 | 0.00 | 0.00 | 82 | 1014.2 |
| 20260504170810 | 56 | 190 | 3.5 | 6.1 | 0.00 | 0.00 | 0.00 | 82 | 1014.2 |
| 20260504170532 | 57 | 191 | 2.6 | 6.1 | 0.00 | 0.00 | 0.00 | 83 | 1014.2 |
| 20260504160257 | 55 | 177 | 3.5 | 7.0 | 0.00 | 0.00 | 0.00 | 84 | 1014.0 |
| 20260504151011 | 55 | 230 | 3.5 | 8.7 | 0.00 | 0.00 | 0.00 | 84 | 1013.8 |
| 20260504150250 | 55 | 223 | 3.5 | 7.8 | 0.00 | 0.00 | 0.00 | 84 | 1013.8 |
| 20260504141224 | 54 | 190 | 4.3 | 8.7 | 0.00 | 0.00 | 0.00 | 86 | 1013.4 |
| 20260504140725 | 54 | 200 | 3.5 | 7.8 | 0.00 | 0.00 | 0.00 | 86 | 1013.3 |
| 20260504140218 | 54 | 161 | 3.5 | 6.1 | 0.00 | 0.00 | 0.00 | 86 | 1013.2 |
| 20260504130711 | 54 | 181 | 1.7 | 3.5 | 0.00 | 0.00 | 0.00 | 87 | 1012.9 |
| 20260504130202 | 54 | 187 | 1.7 | 5.2 | 0.00 | 0.00 | 0.00 | 87 | 1012.8 |
| 20260504110545 | 54 | 196 | 1.7 | 4.3 | 0.00 | 0.00 | 0.00 | 86 | 1012.4 |
| 20260504100535 | 54 | 216 | 4.3 | 8.7 | 0.00 | 0.00 | 0.00 | 86 | 1012.2 |
| 20260504081501 | 54 | 235 | 5.2 | 11.3 | 0.00 | 0.00 | 0.00 | 86 | 1011.6 |
| 20260504081451 | 54 | 214 | 5.2 | 9.6 | 0.00 | 0.00 | 0.00 | 86 | 1011.5 |
| 20260504080501 | 54 | 178 | 6.1 | 10.4 | 0.00 | 0.00 | 0.00 | 86 | 1011.5 |
| 20260504060212 | 57 | 183 | 5.2 | 9.6 | 0.00 | 0.00 | 0.00 | 80 | 1010.2 |
| 20260504050435 | 61 | 219 | 6.1 | 10.4 | 0.00 | 0.00 | 0.00 | 74 | 1009.1 |
| 20260504050154 | 61 | 230 | 5.2 | 9.6 | 0.00 | 0.00 | 0.00 | 73 | 1009.0 |
| 20260504045434 | 62 | 193 | 6.1 | 11.3 | 0.00 | 0.00 | 0.00 | 73 | 1008.8 |
| 20260504044933 | 62 | 220 | 6.1 | 11.3 | 0.00 | 0.00 | 0.00 | 72 | 1008.7 |
| 20260504044433 | 63 | 183 | 6.1 | 11.3 | 0.00 | 0.00 | 0.00 | 71 | 1008.7 |
| 20260504043933 | 64 | 250 | 7.0 | 11.3 | 0.00 | 0.00 | 0.00 | 70 | 1008.7 |
| 20260504043434 | 64 | 189 | 7.8 | 11.3 | 0.00 | 0.00 | 0.00 | 69 | 1008.6 |
| 20260504042932 | 65 | 219 | 8.7 | 15.6 | 0.00 | 0.00 | 0.00 | 68 | 1008.5 |
| 20260504042430 | 66 | 231 | 8.7 | 15.6 | 0.00 | 0.00 | 0.00 | 68 | 1008.3 |
| 20260504041928 | 67 | 221 | 8.7 | 13.9 | 0.00 | 0.00 | 0.00 | 67 | 1008.3 |
| 20260504041652 | 67 | 189 | 9.6 | 13.9 | 0.00 | 0.00 | 0.00 | 66 | 1008.1 |
| 20260504040925 | 68 | 206 | 8.7 | 13.9 | 0.00 | 0.00 | 0.00 | 66 | 1008.0 |
| 20260504040421 | 69 | 248 | 7.8 | 13.9 | 0.00 | 0.00 | 0.00 | 66 | 1007.8 |
| 20260504040141 | 69 | 232 | 7.0 | 13.9 | 0.00 | 0.00 | 0.00 | 65 | 1007.8 |
| 20260504035419 | 71 | 251 | 7.0 | 13.9 | 0.00 | 0.00 | 0.00 | 64 | 1007.6 |
| 20260504034918 | 71 | 230 | 7.8 | 13.9 | 0.00 | 0.00 | 0.00 | 63 | 1007.6 |
| 20260504034642 | 72 | 253 | 7.8 | 14.8 | 0.00 | 0.00 | 0.00 | 61 | 1007.5 |
| 20260504033917 | 73 | 252 | 7.0 | 14.8 | 0.00 | 0.00 | 0.00 | 62 | 1007.3 |
| 20260504033637 | 73 | 231 | 4.3 | 9.6 | 0.00 | 0.00 | 0.00 | 65 | 1007.2 |
| 20260504032912 | 74 | 241 | 5.2 | 9.6 | 0.00 | 0.00 | 0.00 | 65 | 1007.1 |
| 20260504032634 | 74 | 247 | 4.3 | 9.6 | 0.00 | 0.00 | 0.00 | 67 | 1007.1 |
| 20260504031902 | 74 | 221 | 3.5 | 8.7 | 0.00 | 0.00 | 0.00 | 67 | 1006.9 |
| 20260504031404 | 74 | 235 | 2.6 | 3.5 | 0.00 | 0.00 | 0.00 | 66 | 1006.8 |
| 20260504030900 | 75 | 229 | 1.7 | 3.5 | 0.00 | 0.00 | 0.00 | 66 | 1006.9 |
| 20260504030358 | 75 | 256 | 2.6 | 4.3 | 0.00 | 0.00 | 0.00 | 65 | 1006.8 |
| 20260504025858 | 75 | 239 | 2.6 | 4.3 | 0.00 | 0.00 | 0.00 | 64 | 1006.7 |
| 20260504025351 | 76 | 239 | 2.6 | 4.3 | 0.00 | 0.00 | 0.00 | 64 | 1006.8 |
| 20260504024850 | 76 | 229 | 1.7 | 3.5 | 0.00 | 0.00 | 0.00 | 64 | 1006.7 |
| 20260504024352 | 77 | 252 | 1.7 | 3.5 | 0.00 | 0.00 | 0.00 | 64 | 1006.6 |
| 20260504024117 | 78 | 221 | 0.9 | 1.7 | 0.00 | 0.00 | 0.00 | 62 | 1006.7 |
| 20260504023347 | 78 | 222 | 0.9 | 2.6 | 0.00 | 0.00 | 0.00 | 62 | 1006.7 |
| 20260504022846 | 78 | 222 | 1.7 | 2.6 | 0.00 | 0.00 | 0.00 | 62 | 1006.7 |
| 20260504022559 | 78 | 230 | 1.7 | 2.6 | 0.00 | 0.00 | 0.00 | 63 | 1006.7 |
| 20260504021838 | 79 | 230 | 0.9 | 2.6 | 0.00 | 0.00 | 0.00 | 61 | 1006.7 |
| 20260504021339 | 80 | 230 | 0.0 | 0.0 | 0.00 | 0.00 | 0.00 | 57 | 1006.7 |
| 20260504020833 | 81 | 322 | 0.9 | 2.6 | 0.00 | 0.00 | 0.00 | 54 | 1006.7 |
| 20260504020330 | 82 | 322 | 1.7 | 3.5 | 0.00 | 0.00 | 0.00 | 54 | 1006.7 |
| 20260504020040 | 82 | 308 | 1.7 | 4.3 | 0.00 | 0.00 | 0.00 | 53 | 1006.8 |
| 20260504015320 | 82 | 335 | 1.7 | 5.2 | 0.00 | 0.00 | 0.00 | 53 | 1006.8 |
| 20260504014821 | 83 | 337 | 1.7 | 5.2 | 0.00 | 0.00 | 0.00 | 53 | 1006.8 |
| 20260504014534 | 83 | 350 | 1.7 | 3.5 | 0.00 | 0.00 | 0.00 | 53 | 1006.8 |
| 20260504013813 | 83 | 8 | 2.6 | 4.3 | 0.00 | 0.00 | 0.00 | 52 | 1006.8 |
| 20260504013311 | 83 | 353 | 2.6 | 4.3 | 0.00 | 0.00 | 0.00 | 51 | 1006.8 |
| 20260504012809 | 84 | 325 | 2.6 | 5.2 | 0.00 | 0.00 | 0.00 | 49 | 1006.7 |
| 20260504012308 | 84 | 337 | 3.5 | 7.0 | 0.00 | 0.00 | 0.00 | 49 | 1006.8 |
| 20260504011808 | 84 | 2 | 3.5 | 7.0 | 0.00 | 0.00 | 0.00 | 47 | 1006.7 |
| 20260504011306 | 84 | 345 | 3.5 | 7.8 | 0.00 | 0.00 | 0.00 | 48 | 1006.7 |
| 20260504011235 | 85 | 337 | 3.5 | 9.6 | 0.00 | 0.00 | 0.00 | 46 | 1006.7 |
| 20260504010902 | 85 | 357 | 3.5 | 7.8 | 0.00 | 0.00 | 0.00 | 45 | 1006.9 |
| 20260504005806 | 85 | 23 | 4.3 | 9.6 | 0.00 | 0.00 | 0.00 | 45 | 1006.8 |
| 20260504005307 | 86 | 22 | 4.3 | 7.8 | 0.00 | 0.00 | 0.00 | 44 | 1006.8 |
| 20260504004805 | 85 | 5 | 4.3 | 8.7 | 0.00 | 0.00 | 0.00 | 44 | 1006.7 |
| 20260504004301 | 86 | 21 | 3.5 | 8.7 | 0.00 | 0.00 | 0.00 | 43 | 1006.7 |
| 20260504003803 | 86 | 18 | 4.3 | 8.7 | 0.00 | 0.00 | 0.00 | 44 | 1006.8 |
| 20260504003302 | 86 | 2 | 4.3 | 8.7 | 0.00 | 0.00 | 0.00 | 45 | 1006.7 |
| 20260504003022 | 86 | 341 | 5.2 | 8.7 | 0.00 | 0.00 | 0.00 | 43 | 1006.8 |
| 20260504002258 | 86 | 36 | 4.3 | 8.7 | 0.00 | 0.00 | 0.00 | 43 | 1006.8 |
| 20260504001758 | 86 | 8 | 4.3 | 8.7 | 0.00 | 0.00 | 0.00 | 44 | 1006.9 |
| 20260504001257 | 86 | 42 | 6.1 | 9.6 | 0.00 | 0.00 | 0.00 | 42 | 1006.9 |
| 20260504001017 | 86 | 12 | 5.2 | 9.6 | 0.00 | 0.00 | 0.00 | 42 | 1006.8 |
| 20260504000256 | 86 | 25 | 5.2 | 9.6 | 0.00 | 0.00 | 0.00 | 43 | 1006.8 |
| 20260504000022 | 86 | 350 | 5.2 | 9.6 | 0.00 | 0.00 | 0.00 | 44 | 1006.8 |
| 20260503235255 | 86 | 29 | 4.3 | 8.7 | 0.00 | 0.00 | 0.00 | 45 | 1006.8 |
| 20260503234753 | 85 | 339 | 5.2 | 10.4 | 0.00 | 0.00 | 0.00 | 47 | 1006.8 |
| 20260503234252 | 85 | 36 | 6.1 | 11.3 | 0.00 | 0.00 | 0.00 | 46 | 1006.8 |
| 20260503233753 | 85 | 346 | 7.0 | 11.3 | 0.00 | 0.00 | 0.00 | 46 | 1006.9 |
| 20260503233250 | 85 | 353 | 6.1 | 11.3 | 0.00 | 0.00 | 0.00 | 46 | 1006.9 |
| 20260503232751 | 86 | 356 | 7.0 | 10.4 | 0.00 | 0.00 | 0.00 | 44 | 1007.1 |
| 20260503232249 | 85 | 23 | 7.0 | 11.3 | 0.00 | 0.00 | 0.00 | 47 | 1007.1 |
| 20260503231750 | 85 | 358 | 6.1 | 11.3 | 0.00 | 0.00 | 0.00 | 45 | 1007.0 |
| 20260503231254 | 85 | 0 | 5.2 | 10.4 | 0.00 | 0.00 | 0.00 | 46 | 1007.2 |
| 20260503230748 | 85 | 0 | 6.1 | 10.4 | 0.00 | 0.00 | 0.00 | 48 | 1007.2 |
| 20260503230250 | 85 | 8 | 5.2 | 10.4 | 0.00 | 0.00 | 0.00 | 45 | 1007.3 |
| 20260503225751 | 85 | 33 | 4.3 | 9.6 | 0.00 | 0.00 | 0.00 | 50 | 1007.4 |
| 20260503225249 | 85 | 350 | 5.2 | 8.7 | 0.00 | 0.00 | 0.00 | 48 | 1007.5 |
| 20260503225007 | 84 | 0 | 6.1 | 9.6 | 0.00 | 0.00 | 0.00 | 48 | 1007.6 |
| 20260503224249 | 85 | 4 | 5.2 | 9.6 | 0.00 | 0.00 | 0.00 | 48 | 1007.6 |
| 20260503223743 | 84 | 23 | 5.2 | 9.6 | 0.00 | 0.00 | 0.00 | 49 | 1007.7 |
| 20260503223243 | 84 | 2 | 5.2 | 9.6 | 0.00 | 0.00 | 0.00 | 50 | 1007.8 |
| 20260503222958 | 86 | 335 | 5.2 | 9.6 | 0.00 | 0.00 | 0.00 | 47 | 1008.0 |
| 20260503222234 | 86 | 322 | 5.2 | 8.7 | 0.00 | 0.00 | 0.00 | 46 | 1008.1 |
| 20260503221732 | 85 | 17 | 4.3 | 8.7 | 0.00 | 0.00 | 0.00 | 49 | 1008.1 |
| 20260503221232 | 85 | 37 | 4.3 | 8.7 | 0.00 | 0.00 | 0.00 | 47 | 1008.2 |
| 20260503220723 | 85 | 349 | 5.2 | 9.6 | 0.00 | 0.00 | 0.00 | 46 | 1008.2 |
| 20260503220446 | 84 | 350 | 5.2 | 9.6 | 0.00 | 0.00 | 0.00 | 43 | 1008.4 |
| 20260503215724 | 84 | 4 | 5.2 | 9.6 | 0.00 | 0.00 | 0.00 | 44 | 1008.5 |
| 20260503215218 | 84 | 11 | 4.3 | 8.7 | 0.00 | 0.00 | 0.00 | 50 | 1008.5 |
| 20260503214719 | 84 | 348 | 3.5 | 8.7 | 0.00 | 0.00 | 0.00 | 50 | 1008.5 |
| 20260503214216 | 84 | 358 | 3.5 | 7.8 | 0.00 | 0.00 | 0.00 | 49 | 1008.6 |
| 20260503213717 | 83 | 0 | 3.5 | 7.8 | 0.00 | 0.00 | 0.00 | 49 | 1008.5 |
| 20260503213215 | 82 | 13 | 3.5 | 8.7 | 0.00 | 0.00 | 0.00 | 50 | 1008.7 |
| 20260503212716 | 83 | 350 | 4.3 | 8.7 | 0.00 | 0.00 | 0.00 | 49 | 1008.6 |
| 20260503212214 | 83 | 13 | 4.3 | 7.8 | 0.00 | 0.00 | 0.00 | 52 | 1008.6 |
| 20260503211711 | 83 | 344 | 4.3 | 7.8 | 0.00 | 0.00 | 0.00 | 51 | 1009.0 |
| 20260503211212 | 83 | 23 | 4.3 | 9.6 | 0.00 | 0.00 | 0.00 | 49 | 1008.7 |
| 20260503210715 | 83 | 352 | 3.5 | 9.6 | 0.00 | 0.00 | 0.00 | 53 | 1008.8 |
| 20260503210212 | 82 | 312 | 4.3 | 8.7 | 0.00 | 0.00 | 0.00 | 55 | 1008.9 |
| 20260503205714 | 82 | 337 | 4.3 | 9.6 | 0.00 | 0.00 | 0.00 | 56 | 1008.9 |
| 20260503205211 | 81 | 42 | 4.3 | 9.6 | 0.00 | 0.00 | 0.00 | 55 | 1008.9 |
| 20260503204932 | 82 | 284 | 4.3 | 8.7 | 0.00 | 0.00 | 0.00 | 52 | 1009.0 |
| 20260503204443 | 81 | 348 | 5.2 | 8.7 | 0.00 | 0.00 | 0.00 | 56 | 1009.1 |
| 20260503203708 | 81 | 358 | 4.3 | 8.7 | 0.00 | 0.00 | 0.00 | 55 | 1009.2 |
| 20260503203210 | 80 | 352 | 3.5 | 8.7 | 0.00 | 0.00 | 0.00 | 55 | 1009.2 |
| 20260503202709 | 80 | 333 | 3.5 | 7.8 | 0.00 | 0.00 | 0.00 | 51 | 1009.3 |
| 20260503202204 | 80 | 354 | 2.6 | 7.0 | 0.00 | 0.00 | 0.00 | 55 | 1009.6 |
| 20260503201705 | 80 | 308 | 2.6 | 7.0 | 0.00 | 0.00 | 0.00 | 52 | 1009.7 |
| 20260503201205 | 79 | 313 | 3.5 | 8.7 | 0.00 | 0.00 | 0.00 | 54 | 1009.4 |
| 20260503200703 | 79 | 24 | 3.5 | 8.7 | 0.00 | 0.00 | 0.00 | 55 | 1009.5 |
| 20260503200201 | 78 | 17 | 3.5 | 7.8 | 0.00 | 0.00 | 0.00 | 54 | 1009.9 |
| 20260503195701 | 77 | 35 | 3.5 | 7.8 | 0.00 | 0.00 | 0.00 | 58 | 1009.6 |
| 20260503195201 | 77 | 21 | 3.5 | 7.0 | 0.00 | 0.00 | 0.00 | 59 | 1009.7 |
| 20260503194701 | 77 | 352 | 3.5 | 7.8 | 0.00 | 0.00 | 0.00 | 59 | 1009.8 |
| 20260503194202 | 77 | 10 | 3.5 | 7.8 | 0.00 | 0.00 | 0.00 | 61 | 1010.0 |
| 20260503193703 | 77 | 9 | 4.3 | 7.8 | 0.00 | 0.00 | 0.00 | 57 | 1009.9 |
| 20260503193417 | 77 | 350 | 3.5 | 8.7 | 0.00 | 0.00 | 0.00 | 61 | 1010.0 |
| 20260503192658 | 76 | 6 | 3.5 | 8.7 | 0.00 | 0.00 | 0.00 | 62 | 1010.2 |
| 20260503192157 | 76 | 354 | 3.5 | 7.8 | 0.00 | 0.00 | 0.00 | 62 | 1010.2 |
| 20260503191655 | 77 | 2 | 3.5 | 7.8 | 0.00 | 0.00 | 0.00 | 63 | 1010.5 |
| 20260503191147 | 76 | 285 | 2.6 | 7.8 | 0.00 | 0.00 | 0.00 | 65 | 1010.2 |
| 20260503190646 | 74 | 350 | 2.6 | 7.8 | 0.00 | 0.00 | 0.00 | 65 | 1010.3 |
| 20260503190146 | 75 | 359 | 2.6 | 6.1 | 0.00 | 0.00 | 0.00 | 65 | 1010.3 |
| 20260503185637 | 75 | 324 | 3.5 | 6.1 | 0.00 | 0.00 | 0.00 | 64 | 1010.6 |
| 20260503185142 | 74 | 320 | 3.5 | 6.1 | 0.00 | 0.00 | 0.00 | 66 | 1010.6 |
| 20260503184629 | 73 | 316 | 2.6 | 5.2 | 0.00 | 0.00 | 0.00 | 67 | 1010.6 |
| 20260503184108 | 73 | 347 | 2.6 | 5.2 | 0.00 | 0.00 | 0.00 | 66 | 1010.7 |
| 20260503183602 | 73 | 327 | 2.6 | 5.2 | 0.00 | 0.00 | 0.00 | 68 | 1010.8 |